Meteo Giornale » Osservazioni meteo Svizzera » Samedan

ore: 07:50 - Osservazioni Meteo Samedan
Lat. 46° 32' N Lon. 9° 53' E Alt. 1706 metri s.l.m.

coperto_neve Europe/Zurich

-4 °C

Neve Debole

Temp. 24 Ore

-6 °C

-1 °C

Nord

0 Km/h

Dew point -4 °C

Umidità 100 %

Visibilità  2 Km

Il sole sorge alle ore 07:26

Il sole tramonta alle ore 16:45

Data e Ora Cielo e Fenomeni T °C DP °C Um. % Pres. hPa Vis. km Vento km/h
Oggi h: 07:50 coperto_neve Neve Debole -4 -4 100 1013 2 N 0
Oggi h: 07:20 coperto_neve Neve Debole -4 -4 100 1013 2 N 1.8
Oggi h: 06:50 coperto_neve Neve Debole -4 -4 100 1013 2 N 0
Oggi h: 06:20 coperto_neve Neve Debole -4 -4 100 1013 4 N 0
Oggi h: 05:50 coperto_neve Neve Debole -4 -4 100 1013 1 N 1.8
Oggi h: 05:20 coperto_neve Neve Debole -3 -4 92 1013 3 N 1.8
Oggi h: 04:50 coperto_neve Neve Debole -4 -4 100 1013 6 N 0
Oggi h: 04:20 coperto_neve Neve Debole -4 -4 100 1013 5 N 0
Oggi h: 03:50 coperto_neve Neve -4 -4 100 1013 1 N 1.8
Oggi h: 03:20 coperto_neve Neve Debole -4 -4 100 1013 1 N 3.7
Oggi h: 02:20 coperto_neve Neve Debole -4 -4 100 1013 3 N 5.5
Oggi h: 00:50 coperto_neve Neve Debole -4 -4 100 1013 2 N 3.7
Oggi h: 00:20 coperto_neve Neve Debole -4 -4 100 1013 2 N 5.5
Ieri h: 23:20 coperto_neve Neve Debole -4 -4 100 1013 4 N/NE 7.4
Ieri h: 21:20 coperto_neve Neve Debole -4 -4 100 1013 3 N 3.7
Ieri h: 20:50 coperto_neve Neve Debole -4 -4 100 1013 2 N 0
Ieri h: 20:20 coperto_neve Neve Debole -4 -4 100 1013 2 N 1.8
Ieri h: 19:50 coperto_neve Neve Debole -4 -5 92 1013 5 N 0
Ieri h: 19:20 coperto_neve Neve Debole -4 -5 92 1012 10 N 0
Ieri h: 18:50 sereno Sereno -4 -4 100 1012 10 N 0
Ieri h: 18:20 sereno Sereno -4 -5 92 1012 10 N 1.8
Ieri h: 17:50 sereno Sereno -3 -5 86 1012 10 N 1.8
Ieri h: 17:20 coperto Coperto -2 -5 79 1011 10 N 3.7
Ieri h: 16:50 coperto Coperto -3 -5 86 1011 10 N 5.5
Ieri h: 16:20 coperto Coperto -2 -6 73 1011 10 S 7.4
Ieri h: 15:50 nuvoloso Nuvoloso -2 -7 68 1010 10 S 11.1
Ieri h: 15:20 molto_nuvoloso Molto Nuvoloso -2 -7 68 1010 10 S 7.4
Ieri h: 14:50 molto_nuvoloso Molto Nuvoloso -1 -8 58 1010 10 S 16.7
Ieri h: 14:20 molto_nuvoloso Molto Nuvoloso -1 -7 63 1009 10 S 11.1
Ieri h: 13:50 molto_nuvoloso Molto Nuvoloso -1 -7 63 1009 10 S/SO 11.1
Ieri h: 13:20 molto_nuvoloso Molto Nuvoloso -1 -8 58 1009 10 S/SO 13
Ieri h: 12:50 molto_nuvoloso Molto Nuvoloso -1 -7 63 1009 10 S/SE 13
Ieri h: 12:20 molto_nuvoloso Molto Nuvoloso -1 -7 63 1009 10 S/SE 13
Ieri h: 11:50 molto_nuvoloso Molto Nuvoloso -2 -7 68 1009 10 S 14.8
Ieri h: 11:20 nuvoloso Nuvoloso -2 -8 63 1008 10 S 11.1
Ieri h: 10:50 nuvoloso Nuvoloso -3 -8 68 1008 10 S 11.1
Ieri h: 10:20 molto_nuvoloso Molto Nuvoloso -3 -6 79 1008 10 SO 11.1
Ieri h: 09:50 molto_nuvoloso Molto Nuvoloso -4 -4 100 1008 10 S 7.4
Ieri h: 09:20 molto_nuvoloso Molto Nuvoloso -5 -5 100 1008 10 N 3.7
Ieri h: 08:50 nuvoloso Nuvoloso -6 -7 92 1007 10 N 1.8
Ieri h: 08:20 molto_nuvoloso Molto Nuvoloso -5 -5 100 1007 10 N 3.7
Ieri h: 07:50 molto_nuvoloso Molto Nuvoloso -6 -6 100 1006 10 N 3.7